Regional Weather Roundup
Issued by NWS Midland/Odessa, TX

Skip options and go directly to product.
Home | Oldest Version | Next Version | Current Version | All | Text Only | Save Text | Print | Product List | Glossary On

Skip product version selection by date and time.   
633
ASUS44 KMAF 242002
RWRMAF
MIDLAND AREA WEATHER ROUNDUP
NATIONAL WEATHER SERVICE MIDLAND TX
300 PM CDT THU JUL 24 2014

...IN SOUTHWEST TEXAS AND SOUTHEAST NEW MEXICO...

CITY           SKY/WX    TMP DP  RH WIND       PRES   REMARKS
ALPINE         MOSUNNY   88  52  28 SE10G18   30.24F
ANDREWS        FAIR      96  49  20 E9        30.12F
ARTESIA        SUNNY     93  50  22 SE12      30.14F
BIG SPRING     SUNNY    100  54  21 NE10      30.09F
CARLSBAD       SUNNY     97  50  20 VRB7      30.10F
DRYDEN           N/A    100  59  25 E8        30.03F HX 100
FORT STOCKTON  MOSUNNY   94  51  23 E15       30.10F
GUAD PASS      SUNNY     87  42  20 E16G22    30.28F
HOBBS          SUNNY     95  48  20 NE6G12    30.15F
MARFA          PTSUNNY   88  52  29 CALM      30.24F
MIDLAND AIRPK  SUNNY     97  53  22 E10G17    30.10F
MIDLAND INTL   SUNNY     96  54  24 S6        30.09F
ODESSA         SUNNY     96  48  19 E9G21     30.10F
PECOS          SUNNY     98  51  20 E14G21    30.06F
PRESIDIO       MOCLDY    97  55  24 S6G16     30.05F
SEMINOLE       SUNNY     96  48  19 E9        30.13F
SNYDER         SUNNY     96  60  29 E6        30.08F
WINK           SUNNY     99  49  18 SE9       30.06F
$$
...OTHER STATIONS IN TEXAS...

CITY           SKY/WX    TMP DP  RH WIND       PRES   REMARKS
ABILENE        MOSUNNY   95  65  37 VRB5      30.05F
AMARILLO       MOSUNNY   93  58  30 S10       30.15F
AUSTIN         MOSUNNY   92  68  45 VRB5      29.99F
BROWNSVILLE    MOSUNNY   94  72  48 SE17G25   29.94F HX 102
CORPUS CHRISTI PTSUNNY   89  68  49 S20       29.97R
DALLAS FTW     MOSUNNY   94  63  35 VRB6      30.00F
DEL RIO        MOSUNNY   97  65  34 E7        29.96F
EL PASO        MOSUNNY   92  49  22 S8        30.13F
HOUSTON INT    MOSUNNY   93  73  52 N6        29.98F HX 102
LUBBOCK        MOSUNNY   95  58  28 VRB6      30.13F
SAN ANGELO     SUNNY     96  62  32 E9        30.05F
SAN ANTONIO    PTSUNNY   92  66  42 NE8       30.00F
WACO           MOSUNNY   92  69  47 CALM      30.00F
WICHITA FALLS  NOT AVBL
$$
...OTHER LOCATIONS IN NEW MEXICO...

CITY           SKY/WX    TMP DP  RH WIND       PRES   REMARKS
ALAMAGORDO     MOSUNNY   95  45  17 SW10G21   30.16F
ALBUQUERQUE    MOSUNNY   89  44  20 S14       30.25F
CANNON AFB     SUNNY     91  55  28 W8        30.19F
CLOVIS         NOT AVBL
HOLLOMAN AFB   MOSUNNY   96  44  16 S3G16     30.13F
ROSWELL        SUNNY     96  45  17 SE12      30.14F
RUIDOSO        SUNNY     81  41  24 MISG      30.40F
SANTA FE       SUNNY     84  40  21 SW6       30.31F
TRUTH OR CONSE MOSUNNY   91  47  21 MISG      30.20F
TUCUMCARI      SUNNY     97  45  16 SW10      30.13F
$$

USA.gov is the U.S. government's official web portal to all federal, state and local government web resources and services.